FW1923 Weather Reports


Display with metric or nautical units.
time (UTC)temp
F
wind
direction
speed
MPH
gust
MPH
rain 1hr
in
rain 24hr
in
rain mn
in
humidity
%
barometer
mb
20260906124524 67 74 1.0 4.0 0.00 0.00 0.00 96 1018.0
20260906123034 66 70 0.0 0.0 0.00 0.00 0.00 97 1017.8
20260906121516 65 70 0.0 2.0 0.00 0.00 0.00 97 1017.8
20260906120012 64 70 0.0 2.0 0.00 0.00 0.00 96 1017.4
20260906114509 64 70 0.0 2.0 0.00 0.00 0.00 96 1017.4
20260906113006 64 61 1.0 3.0 0.00 0.00 0.00 96 1017.4
20260906111505 64 61 1.0 3.0 0.00 0.00 0.00 96 1017.2
20260906110004 64 59 2.0 4.0 0.00 0.00 0.00 96 1017.0
20260906104504 64 58 1.0 3.0 0.00 0.00 0.00 96 1017.0
20260906103003 65 58 0.0 0.0 0.00 0.00 0.00 96 1017.0
20260906101602 64 55 1.0 5.0 0.00 0.00 0.00 96 1016.8
20260906100002 65 67 1.0 4.0 0.00 0.00 0.00 96 1016.8
20260906094559 65 69 2.0 4.0 0.00 0.00 0.00 96 1016.5
20260906093104 65 70 2.0 5.0 0.00 0.00 0.00 96 1016.4
20260906091559 65 53 3.0 5.0 0.00 0.00 0.00 96 1016.6
20260906090113 65 37 2.0 4.0 0.00 0.00 0.00 96 1016.6
20260906084608 65 32 1.0 3.0 0.00 0.00 0.00 96 1016.5
20260906083056 65 30 1.0 3.0 0.00 0.00 0.00 95 1016.4
20260906081557 65 30 1.0 3.0 0.00 0.00 0.00 95 1016.5
20260906080057 64 30 0.0 0.0 0.00 0.00 0.00 95 1016.3
20260906074603 64 67 0.0 0.0 0.00 0.00 0.00 95 1016.3
20260906073058 63 67 0.0 0.0 0.00 0.00 0.00 94 1016.3
20260906071552 63 67 0.0 0.0 0.00 0.00 0.00 94 1016.2
20260906070112 63 67 0.0 0.0 0.00 0.00 0.00 94 1016.3
20260906064550 63 67 0.0 0.0 0.00 0.00 0.00 94 1016.3
20260906063049 63 67 0.0 0.0 0.00 0.00 0.00 93 1016.4
20260906061601 64 67 0.0 0.0 0.00 0.00 0.00 94 1016.4
20260906060045 64 67 0.0 0.0 0.00 0.00 0.00 93 1016.2
20260906054543 64 67 0.0 0.0 0.00 0.00 0.00 93 1016.2
20260906053045 65 67 0.0 0.0 0.00 0.00 0.00 93 1016.1
20260906051540 65 67 0.0 0.0 0.00 0.00 0.00 93 1016.1
20260906050050 65 67 0.0 0.0 0.00 0.00 0.00 93 1015.8
20260906044535 66 67 0.0 0.0 0.00 0.00 0.00 93 1015.7
20260906043042 66 67 0.0 0.0 0.00 0.00 0.00 93 1015.4
20260906041534 66 67 0.0 2.0 0.00 0.00 0.00 93 1015.3
20260906040031 66 67 2.0 5.0 0.00 0.00 0.00 93 1015.2
20260906034530 67 65 2.0 6.0 0.00 0.00 0.00 93 1015.3
20260906033030 67 71 3.0 5.0 0.00 0.00 0.00 93 1015.3
20260906031529 67 76 2.0 8.0 0.00 0.00 0.00 92 1015.3
20260906030027 67 61 3.0 8.0 0.00 0.00 0.00 92 1015.3
20260906024526 67 44 1.0 5.0 0.00 0.00 0.00 92 1015.3
20260906023024 67 68 3.0 8.0 0.00 0.00 0.00 92 1015.0
20260906021527 67 79 2.0 6.0 0.00 0.00 0.00 92 1015.0
20260906020022 68 53 1.0 4.0 0.00 0.00 0.00 91 1015.2
20260906014528 68 53 1.0 3.0 0.00 0.00 0.00 91 1015.1
20260906013019 68 34 1.0 3.0 0.00 0.00 0.00 90 1015.0
20260906011518 69 35 0.0 5.0 0.00 0.00 0.00 90 1015.0
20260906010016 69 50 1.0 6.0 0.00 0.00 0.00 90 1015.1
20260906004515 69 34 2.0 9.0 0.00 0.00 0.00 91 1014.9
20260906003014 70 44 3.0 9.0 0.00 0.00 0.00 91 1014.9
20260906001513 70 76 4.0 9.0 0.00 0.00 0.00 91 1015.0
20260906000013 70 77 5.0 12.0 0.00 0.00 0.00 90 1014.9
20260905234510 70 56 6.0 11.0 0.00 0.00 0.00 90 1015.0
20260905233011 70 72 4.0 10.0 0.00 0.00 0.00 91 1015.0
20260905231513 70 73 7.0 14.0 0.00 0.00 0.00 90 1014.8
20260905230005 71 53 5.0 13.0 0.00 0.00 0.00 90 1014.8
20260905224503 71 51 5.0 12.0 0.00 0.00 0.00 89 1014.6
20260905223002 71 66 5.0 11.0 0.00 0.00 0.00 89 1014.6
20260905221559 71 71 7.0 14.0 0.00 0.00 0.00 88 1014.4
20260905220106 72 61 9.0 15.0 0.00 0.00 0.00 88 1014.3
20260905214559 72 76 8.0 15.0 0.00 0.00 0.00 87 1014.1
20260905213057 74 34 7.0 16.0 0.00 0.00 0.00 86 1013.9
20260905211556 75 78 8.0 14.0 0.00 0.00 0.00 85 1013.7
20260905210055 74 64 7.0 15.0 0.00 0.00 0.00 85 1013.7
20260905204555 75 18 7.0 13.0 0.00 0.00 0.00 85 1013.7
20260905203059 75 19 6.0 14.0 0.00 0.00 0.00 85 1013.7
20260905201554 76 55 9.0 17.0 0.00 0.00 0.00 85 1013.7
20260905200056 77 55 10.0 16.0 0.00 0.00 0.00 84 1013.7
20260905194551 77 84 10.0 15.0 0.00 0.00 0.00 83 1013.4
20260905193050 78 51 7.0 17.0 0.00 0.00 0.00 83 1013.6
20260905191548 78 9 5.0 14.0 0.00 0.00 0.00 83 1013.6
20260905190054 78 70 8.0 12.0 0.00 0.00 0.00 83 1013.5
20260905184557 77 62 3.0 11.0 0.00 0.00 0.00 84 1013.8
20260905183048 77 44 3.0 12.0 0.00 0.00 0.00 85 1013.7
20260905181542 76 82 4.0 9.0 0.00 0.00 0.00 85 1013.9
20260905180040 76 63 3.0 10.0 0.00 0.00 0.00 87 1013.9
20260905174538 76 58 3.0 7.0 0.00 0.00 0.00 87 1014.0
20260905173037 76 49 3.0 7.0 0.00 0.00 0.00 87 1014.1
20260905171537 75 40 2.0 6.0 0.00 0.00 0.00 89 1014.0
20260905170038 75 53 4.0 11.0 0.00 0.00 0.00 89 1014.2
20260905164536 75 47 3.0 9.0 0.00 0.26 0.00 90 1014.4
20260905163031 75 73 2.0 8.0 0.00 0.26 0.00 90 1014.3
20260905161529 74 33 3.0 7.0 0.00 0.26 0.00 90 1014.3
20260905160026 74 68 3.0 9.0 0.00 0.26 0.00 93 1014.3
20260905154522 73 82 5.0 9.0 0.00 0.26 0.00 94 1014.2
20260905153022 72 50 3.0 5.0 0.00 0.26 0.00 94 1014.2
20260905151518 72 98 3.0 7.0 0.00 0.26 0.00 94 1014.0
20260905150019 72 69 3.0 7.0 0.00 0.26 0.00 95 1013.9
20260905144513 72 46 3.0 8.0 0.00 0.26 0.00 95 1013.7
20260905143019 72 56 3.0 8.0 0.00 0.26 0.00 95 1013.4
20260905141504 72 49 5.0 10.0 0.00 0.26 0.00 95 1013.4
20260905140001 72 44 5.0 11.0 0.00 0.26 0.00 96 1013.4
20260905134603 71 65 4.0 9.0 0.00 0.26 0.00 96 1013.3
20260905133106 71 59 4.0 6.0 0.00 0.26 0.00 97 1013.4
20260905131609 71 53 3.0 7.0 0.00 0.26 0.00 97 1013.9
20260905130055 71 19 5.0 12.0 0.00 0.26 0.00 97 1013.3
20260905124553 71 46 2.0 7.0 0.00 0.28 0.00 97 1012.9